[[{"header":{"parameterUnit":"m.s-1","parameterCategory":1,"la1":30.2991,"la2":30.254,"lo1":-89.0895,"lo2":-89.0444,"dy":0.0017,"dx":0.0017,"nx":28,"ny":28,"refTime":"2024-06-11T03:00:00:Z","depth":0,"parameterNumber":2,"parameterNumberName":"U-component_of_WINDS"},"data":[0,0,0,0,0,0,0,0,0,0,0,0,0,0,0,0,0,0,0,0,0,0,0,0,0,0,0,0,0,0,0,0,0,0,0,0,0,0,0,0,0,0,0,0,0,0,0,0,0,0,0,0,0,0,0,0,0,0,-2.9895,-2.9895,0,-2.9887,-2.9887,-2.9886,-2.9812,-2.981,-2.9809,-2.9807,-2.9798,-2.9799,-2.9801,0,0,0,0,0,0,0,0,0,0,0,0,0,-2.9847,-2.9848,-2.9895,-2.9895,-2.9895,-2.9887,-2.9887,-2.9886,-2.9813,-2.981,-2.9808,-2.9806,-2.9798,-2.9799,-2.9801,0,0,0,0,0,0,0,0,0,0,0,0,0,-2.9856,-2.9849,-2.9895,-2.9857,-2.9854,-2.9887,-2.9886,-2.9886,-2.9813,-2.981,-2.9808,-2.9805,-2.9797,-2.9799,-2.9801,-2.987,0,0,-2.9808,-2.9809,0,0,0,0,0,0,0,0,-2.9856,-2.9858,-2.9863,-2.986,-2.9856,-2.9848,-2.9866,-2.9881,-2.9814,-2.9828,-2.9807,-2.9804,-2.9817,-2.9817,-2.9822,-2.987,-2.9869,-2.9808,-2.981,-2.9811,-2.9811,0,0,0,0,0,0,0,-2.9855,-2.9858,-2.9892,-2.9863,-2.9859,-2.984,-2.9839,-2.9869,-2.9838,-2.9827,-2.9822,-2.9822,-2.9814,-2.982,-2.9821,-2.9869,-2.9808,-2.981,-2.9812,-2.9812,-2.9974,-2.9977,0,0,0,0,0,0,-2.986,-2.9858,-2.9892,-2.9891,-2.9849,-2.9843,-2.9841,-2.9853,-2.9838,-2.9833,-2.9824,-2.9818,-2.9817,-2.9818,-2.982,-2.9901,-2.9811,-2.9813,-2.9814,-2.9972,-2.9975,-2.9978,0,0,0,0,0,0,-2.9859,-2.9864,-2.9892,-2.9873,-2.9875,-2.9847,-2.9861,-2.9854,-2.986,-2.9835,-2.9829,-2.9835,-2.9815,-2.9817,-2.9859,-2.9899,-2.9814,-2.9816,-2.9968,-2.9973,-2.9977,-3.0062,0,0,0,0,0,0,-2.9858,-2.9864,-2.989,-2.9874,-2.9877,-2.9931,-2.9863,-2.9856,-2.9864,-2.9856,-2.9844,-2.984,-2.9813,-2.9856,-2.9861,-2.9901,-2.9817,-2.9964,-2.997,-2.9975,-3.0055,-3.0069,-3.008,0,0,0,0,0,-2.9857,-2.9914,-2.9891,-2.9896,-2.9909,-2.9933,-2.9935,-2.9903,-2.9867,-2.9893,-2.9878,-2.984,-2.9894,-2.9861,-2.9866,-2.9907,-2.9962,-2.9968,-2.9975,-3.005,-3.0066,-3.008,0,0,0,0,0,0,-2.9934,-2.9911,-2.9886,-2.994,-2.9939,-2.9921,-2.9952,-2.9921,-2.9931,-2.9923,-2.9883,-2.9881,-2.9929,-2.9922,-2.9885,-2.9973,-2.9921,-2.9929,-2.9976,-2.9992,-3.0004,-3.0005,-2.9819,0,0,0,0,0,-2.9958,-2.998,-2.9958,-3.0008,-3.0009,-2.9981,-2.999,-2.9966,-2.9964,-2.9963,-2.9951,-2.995,-2.9967,-2.9979,-2.9993,-3.0054,-3.005,-3.0085,-3.0097,-3.0107,-3.0115,-3.0148,-3.0163,-3.0,-3.0,-3.0,0,0,-3.0006,-2.9996,-3.0012,-3.0023,-3.002,-3.0044,-2.9981,-3.0009,-3.0027,-2.9967,-3.0006,-2.9997,-2.9993,-3.0045,-3.0068,-3.0041,-3.0159,-3.0116,-3.0124,-3.0126,-3.0156,-3.0172,-3.0185,-3.0005,-3.0004,-3.0003,0,0,-3.0107,-3.0101,-3.0142,-3.0141,-3.0137,-3.0118,-3.0128,-3.0114,-3.0106,-3.0144,-3.0101,-3.0121,-3.0151,-3.015,-3.0154,-3.0256,-3.0222,-3.0261,-3.0326,-3.0359,-3.0372,-3.0383,-3.042,-3.0434,-3.0269,-3.0269,-3.0269,0,-3.0167,-3.0202,-3.0167,-3.0198,-3.0205,-3.0153,-3.0194,-3.0194,-3.0195,-3.0201,-3.0171,-3.0207,-3.0201,-3.0253,-3.0278,-3.0282,-3.0293,-3.0263,-3.0373,-3.0383,-3.0393,-3.0428,-3.0442,-3.0274,-3.0273,-3.0273,-3.0272,0,-3.0277,-3.0302,-3.0336,-3.0339,-3.0348,-3.0385,-3.0356,-3.037,-3.0345,-3.033,-3.037,-3.0361,-3.0372,-3.0383,-3.0358,-3.0431,-3.0415,-3.038,-3.0326,-3.0414,-3.0447,-3.046,-3.0281,-3.0279,-3.0278,-3.0277,0,0,-3.0426,-3.041,-3.0423,-3.0424,-3.0416,-3.0435,-3.0469,-3.0481,-3.0494,-3.0497,-3.0525,-3.0551,-3.0519,-3.0523,-3.0498,-3.0527,-3.0609,-3.0488,-3.0487,-3.0511,-3.069,-3.0717,-3.0734,-3.0586,-3.0589,-3.0591,-3.0691,0,-3.0524,-3.0582,-3.0552,-3.0613,-3.0636,-3.0588,-3.0617,-3.0616,-3.0603,-3.062,-3.0605,-3.0625,-3.058,-3.0583,-3.0608,-3.0594,-3.0645,-3.0586,-3.0613,-3.0614,-3.0616,-3.075,-3.0779,-3.0874,-3.0703,-3.0705,-3.0706,0,-3.0645,-3.0654,-3.0718,-3.0707,-3.0715,-3.0743,-3.0752,-3.0769,-3.0767,-3.0755,-3.0761,-3.0729,-3.0762,-3.071,-3.0755,-3.0716,-3.0725,-3.072,-3.0722,-3.0724,-3.0666,-3.0757,-3.0903,-3.0918,-3.0726,-3.0724,-3.0723,0,-3.0749,-3.0776,-3.0818,-3.0821,-3.0809,-3.0829,-3.0825,-3.082,-3.0829,-3.0837,-3.0843,-3.0854,-3.0861,-3.0871,-3.0844,-3.0807,-3.0893,-3.0838,-3.0885,-3.0886,-3.0906,-3.0905,-3.1057,-3.091,-3.091,-3.091,-3.0909,0,-3.0862,-3.0903,-3.0865,-3.0891,-3.0936,-3.0902,-3.0947,-3.0938,-3.0934,-3.0957,-3.0916,-3.0939,-3.0901,-3.092,-3.0899,-3.0941,-3.0944,-3.0936,-3.093,-3.094,-3.0941,-3.0946,-3.0939,-3.0913,-3.0913,-3.0912,-3.0911,0,-3.0985,-3.0961,-3.1004,-3.099,-3.0987,-3.1021,-3.1008,-3.1032,-3.1016,-3.1046,-3.1051,-3.1026,-3.1047,-3.1021,-3.1039,-3.1025,-3.1082,-3.1065,-3.1083,-3.1079,-3.1128,-3.1124,-3.1289,-3.1309,-3.1149,-3.115,-3.1152,0,-3.1059,-3.109,-3.1079,-3.1092,-3.1091,-3.1112,-3.1121,-3.1089,-3.11,-3.1101,-3.1125,-3.1142,-3.1154,-3.119,-3.1173,-3.1187,-3.1171,-3.1228,-3.1173,-3.1183,-3.1173,-3.1173,-3.1176,-3.124,-3.1241,-3.1243,-3.1244,0,-3.1193,-3.118,-3.1196,-3.1208,-3.1221,-3.1228,-3.1233,-3.1246,-3.1211,-3.1227,-3.1248,-3.1258,-3.1276,-3.1295,-3.1304,-3.13,-3.1267,-3.1262,-3.1273,-3.1285,-3.1294,-3.1291,-3.1115,-3.1258,-3.1257,-3.1256,-3.1255,-3.1254,-3.1294,-3.132,-3.1317,-3.1336,-3.1336,-3.1342,-3.1364,-3.1351,-3.1368,-3.1381,-3.136,-3.1387,-3.1384,-3.1394,-3.1394,-3.1414,-3.139,-3.1407,-3.1411,-3.1416,-3.1424,-3.129,-3.1416,-3.1415,-3.1415,-3.1414,-3.1414,0,-3.1427,-3.1423,-3.1441,-3.1449,-3.1465,-3.1432,-3.1436,-3.1451,-3.1475,-3.1475,-3.1489,-3.1513,-3.1531,-3.1516,-3.1531,-3.155,-3.1536,-3.1555,-3.1554,-3.1554,-3.1445,-3.1433,-3.1567,-3.1567,-3.1567,-3.1567,-3.1567,-3.1567,-3.1498,-3.1541,-3.1527,-3.1569,-3.1564,-3.1591,-3.1596,-3.1601,-3.1601,-3.1631,-3.1645,-3.1636,-3.163,-3.1644,-3.1659,-3.1654,-3.1662,-3.1688,-3.1678,-3.1576,-3.1561,-3.1547,-3.1536,-3.1689,-3.169,-3.1785,-3.1786,-3.1787]},{"header":{"parameterUnit":"m.s-1","parameterCategory":1,"la1":30.2991,"la2":30.254,"lo1":-89.0895,"lo2":-89.0444,"dy":0.0017,"dx":0.0017,"nx":28,"ny":28,"refTime":"2024-06-11T03:00:00:Z","depth":0,"parameterNumber":3,"parameterNumberName":"V-component_of_WINDS"},"data":[0,0,0,0,0,0,0,0,0,0,0,0,0,0,0,0,0,0,0,0,0,0,0,0,0,0,0,0,0,0,0,0,0,0,0,0,0,0,0,0,0,0,0,0,0,0,0,0,0,0,0,0,0,0,0,0,0,0,-1.0147,-1.0148,0,-1.0231,-1.0232,-1.0233,-1.0228,-1.0227,-1.0226,-1.0225,-1.0313,-1.0317,-1.032,0,0,0,0,0,0,0,0,0,0,0,0,0,-0.9986,-0.9989,-1.0147,-1.0148,-1.0149,-1.0231,-1.0232,-1.0233,-1.0228,-1.0227,-1.0225,-1.0224,-1.0312,-1.0316,-1.0321,0,0,0,0,0,0,0,0,0,0,0,0,0,-1.0061,-0.999,-1.0147,-1.0157,-1.0158,-1.0231,-1.0232,-1.0234,-1.0229,-1.0227,-1.0225,-1.0223,-1.0311,-1.0316,-1.0321,-1.039,0,0,-1.0337,-1.0339,0,0,0,0,0,0,0,0,-1.0057,-1.0067,-1.0154,-1.0156,-1.0158,-1.0217,-1.0208,-1.0286,-1.0229,-1.0202,-1.0225,-1.0222,-1.0283,-1.029,-1.031,-1.0394,-1.0398,-1.0338,-1.0341,-1.0343,-1.0345,0,0,0,0,0,0,0,-1.0052,-1.0064,-1.0181,-1.0156,-1.0158,-1.0158,-1.0166,-1.0223,-1.0252,-1.0204,-1.0204,-1.0214,-1.0284,-1.0305,-1.0312,-1.04,-1.0337,-1.0342,-1.0345,-1.0347,-1.0546,-1.0548,0,0,0,0,0,0,-1.0044,-1.0059,-1.0178,-1.0183,-1.0102,-1.0162,-1.0172,-1.02,-1.0251,-1.0257,-1.0215,-1.0213,-1.0297,-1.0306,-1.0315,-1.0402,-1.0343,-1.0348,-1.0351,-1.0544,-1.0547,-1.0549,0,0,0,0,0,0,-1.0041,-1.0055,-1.0175,-1.0121,-1.0136,-1.0167,-1.0199,-1.0203,-1.0224,-1.026,-1.0265,-1.0232,-1.0296,-1.0308,-1.0372,-1.0405,-1.035,-1.0355,-1.0542,-1.0545,-1.0548,-1.0573,0,0,0,0,0,0,-1.0036,-1.0054,-1.008,-1.0122,-1.0139,-1.0229,-1.0201,-1.0206,-1.0233,-1.0231,-1.0277,-1.0282,-1.0296,-1.0364,-1.0377,-1.0411,-1.0359,-1.0539,-1.0543,-1.0547,-1.057,-1.0577,-1.0583,0,0,0,0,0,-1.003,-1.0084,-1.0081,-1.0095,-1.0172,-1.0231,-1.0241,-1.0254,-1.0236,-1.0263,-1.0285,-1.0281,-1.0398,-1.0371,-1.0385,-1.0421,-1.0537,-1.0542,-1.0547,-1.0567,-1.0576,-1.0583,0,0,0,0,0,0,-1.0046,-1.0089,-1.0087,-1.0155,-1.0189,-1.023,-1.0264,-1.0263,-1.0304,-1.03,-1.0316,-1.0326,-1.0391,-1.0412,-1.038,-1.0491,-1.0465,-1.0473,-1.0476,-1.0484,-1.0491,-1.0486,-1.0364,0,0,0,0,0,-1.0056,-1.0099,-1.0136,-1.0193,-1.021,-1.0234,-1.026,-1.0267,-1.0303,-1.0318,-1.0345,-1.0382,-1.0427,-1.0456,-1.0499,-1.0572,-1.0583,-1.0604,-1.061,-1.0616,-1.0623,-1.0665,-1.0675,-1.0565,-1.0565,-1.0565,0,0,-1.0081,-1.011,-1.0136,-1.0196,-1.0224,-1.0269,-1.0246,-1.0295,-1.0329,-1.0326,-1.0388,-1.0409,-1.0451,-1.0519,-1.0551,-1.0539,-1.0656,-1.0622,-1.0626,-1.0631,-1.0671,-1.0681,-1.0691,-1.0568,-1.0568,-1.0567,0,0,-1.0148,-1.0173,-1.0224,-1.0252,-1.0293,-1.0308,-1.0321,-1.0361,-1.0375,-1.0438,-1.0436,-1.0477,-1.0554,-1.0584,-1.061,-1.0688,-1.0686,-1.0701,-1.0737,-1.0778,-1.0786,-1.0794,-1.0824,-1.0835,-1.0708,-1.0708,-1.0708,0,-1.0173,-1.024,-1.0251,-1.03,-1.0328,-1.0325,-1.0378,-1.0404,-1.0457,-1.0477,-1.0462,-1.0559,-1.0587,-1.0663,-1.0682,-1.0702,-1.0718,-1.0697,-1.0784,-1.0792,-1.08,-1.0829,-1.084,-1.071,-1.071,-1.0709,-1.0709,0,-1.027,-1.0317,-1.0353,-1.0404,-1.0435,-1.0486,-1.0505,-1.0536,-1.054,-1.0557,-1.0621,-1.0654,-1.0705,-1.0723,-1.0727,-1.0801,-1.0792,-1.078,-1.0755,-1.0812,-1.0839,-1.085,-1.0712,-1.0712,-1.0711,-1.0711,0,0,-1.0351,-1.0407,-1.0421,-1.0444,-1.0489,-1.0526,-1.0576,-1.0625,-1.0652,-1.0688,-1.0733,-1.0797,-1.0787,-1.0816,-1.0823,-1.0858,-1.0921,-1.0843,-1.0844,-1.0858,-1.1006,-1.1016,-1.1029,-1.0918,-1.0921,-1.0922,-1.1003,0,-1.0425,-1.0515,-1.0526,-1.0606,-1.065,-1.0648,-1.0692,-1.0725,-1.0743,-1.0783,-1.0803,-1.085,-1.0831,-1.0849,-1.0883,-1.0906,-1.0951,-1.09,-1.0962,-1.0964,-1.0955,-1.1043,-1.1054,-1.1129,-1.1014,-1.1016,-1.1017,0,-1.0524,-1.0563,-1.0647,-1.0686,-1.0705,-1.0745,-1.0791,-1.0829,-1.0867,-1.0877,-1.0909,-1.0912,-1.0966,-1.0936,-1.1012,-1.0976,-1.1002,-1.1017,-1.1021,-1.1029,-1.0996,-1.1057,-1.1153,-1.1165,-1.1034,-1.1032,-1.1031,0,-1.0578,-1.0651,-1.0711,-1.0731,-1.0778,-1.0806,-1.0827,-1.0863,-1.0891,-1.0931,-1.0951,-1.0996,-1.1022,-1.1058,-1.1074,-1.1051,-1.115,-1.1121,-1.1162,-1.1161,-1.1185,-1.1184,-1.129,-1.1197,-1.1197,-1.1196,-1.1196,0,-1.0661,-1.0713,-1.0736,-1.0774,-1.0833,-1.0845,-1.0903,-1.0923,-1.0954,-1.0997,-1.0997,-1.1036,-1.1054,-1.1097,-1.1109,-1.1171,-1.1182,-1.1194,-1.1197,-1.1195,-1.1194,-1.1215,-1.1211,-1.1199,-1.1199,-1.1198,-1.1198,0,-1.0732,-1.075,-1.0816,-1.0854,-1.0865,-1.0907,-1.094,-1.0977,-1.0993,-1.1047,-1.106,-1.1086,-1.1137,-1.1156,-1.1217,-1.1226,-1.1298,-1.1296,-1.1286,-1.1287,-1.1328,-1.1325,-1.1453,-1.1471,-1.1364,-1.1365,-1.1366,0,-1.0785,-1.0826,-1.0868,-1.0896,-1.0918,-1.0962,-1.0992,-1.1005,-1.1035,-1.1081,-1.1113,-1.1162,-1.1203,-1.1284,-1.131,-1.1357,-1.1358,-1.1399,-1.1365,-1.1362,-1.1362,-1.136,-1.1365,-1.1407,-1.1408,-1.1409,-1.1409,0,-1.0879,-1.0885,-1.0927,-1.0972,-1.1006,-1.1042,-1.1078,-1.11,-1.1119,-1.1153,-1.1204,-1.1236,-1.1299,-1.1349,-1.1397,-1.142,-1.1419,-1.1419,-1.1432,-1.1432,-1.1426,-1.1432,-1.1306,-1.1417,-1.1416,-1.1416,-1.1415,-1.1415,-1.0945,-1.0981,-1.1017,-1.1063,-1.1091,-1.1123,-1.116,-1.1181,-1.1223,-1.1275,-1.128,-1.1336,-1.1372,-1.1437,-1.1462,-1.1507,-1.1496,-1.1513,-1.1518,-1.1523,-1.1527,-1.1416,-1.1515,-1.1515,-1.1515,-1.1515,-1.1514,0,-1.104,-1.1063,-1.1105,-1.1154,-1.1191,-1.1184,-1.1223,-1.1255,-1.1303,-1.1337,-1.1377,-1.1437,-1.1485,-1.1514,-1.1563,-1.1593,-1.1594,-1.1606,-1.1606,-1.1611,-1.1533,-1.1518,-1.1605,-1.1605,-1.1605,-1.1605,-1.1605,-1.1605,-1.1095,-1.1156,-1.1167,-1.1242,-1.1265,-1.1319,-1.1341,-1.1372,-1.1399,-1.1465,-1.1506,-1.1523,-1.1556,-1.1607,-1.1652,-1.1659,-1.1679,-1.1692,-1.1699,-1.1626,-1.1617,-1.1608,-1.1594,-1.1696,-1.1696,-1.1774,-1.1775,-1.1775]}]]